{"data":{"norad_id":67865,"epoch":"2026-05-24T21:44:45.239424Z","epoch_age_seconds":83438,"freshness":"FRESH","line1":"1 67865U 26034R   26144.90607916  .00011038  00000+0  38419-3 0  9992","line2":"2 67865  53.1590 210.3036 0001145  83.9392 276.1739 15.30204202 15704","mean_motion":15.30204202,"eccentricity":0.0001145,"inclination_deg":53.159,"raan_deg":210.3036,"arg_perigee_deg":83.9392,"mean_anomaly_deg":276.1739,"bstar":0.00038419,"rev_number":1570,"period_min":94.10508728952,"perigee_km":474.41781565806,"apogee_km":475.98723040884,"semimajor_km":6853.3395230334,"source":"CELESTRAK","updated_at":"2026-05-25T13:38:21.728028Z"}}